www.pogodaiklimat.ru

Погода и климат >> Архив погоды >> Боливия >> Санта-Ана


ПОГОДА в Санта-Ане

  • Прогноз погоды в Санта-Ане
  • Монитор погоды в Санта-Ане

АРХИВ ПОГОДЫ в Санта-Ане

Время (UTC), дата Ветер
(напр.,м/с)
 
Видим.   Явления Облачность Т
(С)
Тd
(С)
f
(%)
Тe
(С)
Тes
(С)
Комфортность P
(гПа)
Po
(гПа)
Тmin
(С)
Tmax
(С)
R
(мм)
R24
(мм)
S
(см)
12 19.08 штиль 0 5000 м дым 6/3 600 м
[Cu med, cong Ci fib]
+23.7 +22.0 90 +31 +33 очень
душно
1014.4 998.0 +21.7
15 19.08 СЗ 4 5000 м дым 9/5 600 м
[Cb cap Ci ing]
+30.4 +23.0 65 +41 +45 опасность
перегрева
1015.5 999.0
18 19.08 Ю 3 5000 м осадки на расстоянии туман 9/5 600 м
[Cb cap Ci ing]
+27.5 +21.6 70 +35 +41 очень
душно
1014.1 997.6
21 19.08 ЮВ 4 5000 м дым 8/3 600 м
[Cu med, cong Ac trans Ci]
+28.0 +22.4 72 +37 +37 очень
душно
1011.6 995.2 +31.0
12 20.08 ЮВ 3 6000 м дым 6/0 2000 м
[Ac trans Ci fib]
+17.5 +11.5 68 +17 +19 1016.5 999.7 +16.2
15 20.08 Ю 5 7000 м дым 6/0 2000 м
[Ac trans]
+24.7 +11.9 45 +26 +31 жарко 1017.3 1000.7
18 20.08 ЮВ 3 7000 м дым ясно +29.3 +15.1 42 +32 +44 душно 1014.5 998.0
21 20.08 Ю 4 6000 м дым ясно +29.7 +17.1 47 +34 +35 очень
душно
1013.8 997.3 +31.1
12 21.08 Ю 4 6000 м дым ясно +18.4 +14.0 76 +19 +21 1017.8 1000.7 +16.1
15 21.08 Ю 5 7000 м дым ясно +26.2 +12.1 41 +28 +36 жарко 1018.1 1001.5
18 21.08 Ю 3 5000 м дым ясно +30.7 +14.4 37 +33 +46 душно 1014.8 998.3
21 21.08 Ю 3 5000 м дым ясно +30.4 +15.6 41 +33 +35 душно 1013.5 997.0 +32.0
12 22.08 штиль 0 5000 м дым 4/0 2000 м
[Ac trans]
+19.3 +16.5 84 +21 +24 комфорт 1015.0 998.3 +17.0
15 22.08 Ю 3 6000 м дым ясно +30.0 +17.1 46 +34 +48 очень
душно
1015.5 999.0
18 22.08 штиль 0 5000 м дым ясно +34.5 +17.8 37 +38 +59 опасность
солнечного
удара
1011.6 995.3
21 22.08 С 2 5000 м дым ясно +35.0 +18.5 38 +39 +41 очень
душно
1011.2 994.9 +35.9
12 23.08 ЮВ 5 7000 м дым ясно +22.7 +14.1 58 +26 +27 жарко 1018.1 1001.3 +20.1
15 23.08 ЮВ 8 5000 м дым ясно +28.4 +13.6 40 +30 +33 жарко 1018.5 1002.0
18 23.08 ЮВ 6 5000 м дым ясно +32.0 +16.6 40 +35 +41 очень
душно
1014.5 998.0
21 23.08 Ю 4 5000 м дым ясно +31.6 +16.6 41 +35 +36 очень
душно
1012.8 996.3 +32.8
12 24.08 штиль 0 5000 м дым ясно +18.7 +16.8 89 +20 +23 1014.1 997.5 +16.4
15 24.08 ЮВ 4 6000 м дым ясно +30.0 +16.2 43 +33 +44 душно 1014.7 998.2
18 24.08 В 3 5000 м дым ясно +34.0 +17.9 38 +38 +52 опасность
солнечного
удара
1010.6 994.3
21 24.08 штиль 0 5000 м дым ясно +34.4 +18.6 39 +39 +41 очень
душно
1009.3 993.0 +35.5
12 25.08 штиль 0 5000 м дым 8/0 2000 м
[Ac trans Ci fib]
+22.4 +19.8 85 +28 +31 душно 1012.6 996.0 +19.3
15 25.08 СЗ 3 5000 м дым 6/0
[Ci fib]
+31.7 +18.7 46 +37 +50 очень
душно
1013.6 997.2
18 25.08 СЗ 3 5000 м дым 6/0
[Ci fib]
+35.5 +18.3 36 +39 +52 опасность
солнечного
удара
1010.5 994.2

 

Местоположение метеостанции Санта-Ана (Боливия): широта -13.76 долгота -65.43 высота над уровнем моря 144 м.

В архиве по умолчанию представлена погода в Санта-Ане за последнюю неделю. Архивные данные за месяц целиком и за предыдущие месяцы, начиная с января 2011 года, Вы можете получить, выбрав интересующий диапазон дат из раскрывающегося списка и нажав кнопку "Ввод!".


*Определитесь, кто Вы:
робот инопланетянин человек

Внимание! Время в таблицах - всемирное. Для получения местного времени необходимо прибавить поправку, которая равна -4 ч.

Смотрите также архив погоды в соседних городах и на ближайших метеорологических станциях:

Погода в Бауресе (Боливия) (1 км)
Погода в Сан-Рамоне (Боливия) (94 км)
Погода в Сан-Хоакине (Боливия) (103 км)
Погода в Сан Игнасио де Moксосе (Боливия) (129 км)
Погода в Тринидаде (Боливия) (130 км)
Погода в Магдалене (Боливия) (151 км)
Погода в Санта-Розе (Боливия) (165 км)
Погода в Сан-Борхе (Боливия) (197 км)
Погода в Рейесе (Боливия) (219 км)
Погода в Рурренабаке (Боливия) (243 км)

Пояснения к столбцам:

Ветер - указаны скорость ветра в м/с - средняя за 10 мин, порывы в срок и между сроками (в фигурных скобках) и направление, откуда дует ветер: С - северный, СВ - северо-восточный, В - восточный, ЮВ - юго-восточный, Ю - южный, ЮЗ - юго-западный, З - западный, СЗ - северо-западный.
Видимость - горизонтальная дальность видимости в метрах или километрах. При видимости от 1 до 10 км при отсутствии осадков обычно наблюдается дымка, при ухудшении видимости до 1 км и менее - туман. В сухую погоду видимость может ухудшаться дымом, пылью или мглою.
Явления - указаны атмосферные явления, наблюдавшиеся в срок или в последний час перед сроком; фигурными скобками обозначены явления, наблюдавшиеся между сроками (за 1-3 часа до срока); квадратными скобками обозначены град или гололедные отложения с указанием их диаметра в мм.
Облачность - указаны через наклонную черту общая и нижняя облачность в баллах и высота нижней границы облаков в метрах; квадратными скобками обозначены формы облаков: Ci - перистые, Cs - перисто-слоистые, Cc - перисто-кучевые, Ac - высококучевые, As - высокослоистые, Sc - слоисто-кучевые, Ns - слоисто-дождевые, Cu - кучевые, Cb - кучево-дождевые. Подробнее классификацию облаков см. в Атласе облаков (PDF).
T - Температура воздуха - температура, измеренная на высоте 2 м над землей.
Td - Температура точки росы - температура, при понижении до которой содержащийся в воздухе водяной пар достигнет насыщения.
f - Относительная влажность воздуха - влажноcть воздуха, измеренная на высоте 2 м над землей.
Te - Эффективная температура - температура, которую ощущает одетый по сезону человек в тени. Характеристика душности погоды. При расчете учитывается влияние влажности воздуха и скорости ветра на теплоощущения человека.
Tes - Эффективная температура на солнце - температура, которую ощущает человек, с поправкой на солнечный нагрев. Характеристика знойности погоды. Зависит от высоты солнца над горизонтом, облачности и скорости ветра. Ночью, в пасмурную погоду, а также при ветре 12 м/с и более поправка равна нулю.
P - Атмосферное давление - приведенное к уровню моря атмосферное давление.
Po - Атмосферное давление - измеренное на уровне метеостанции атмосферное давление.
Tmin - Минимальная температура - минимум температуры воздуха на высоте 2 м над землей.
Tmax - Максимальная температура - максимум температуры воздуха на высоте 2 м над землей.
R - Количество осадков - Количество выпавших осадков за период времени, мм. При наведении курсора мыши на число - период времени, за который выпало указанное количество осадков.
R24 - Количество осадков - Количество выпавших осадков за 24 часа, мм.
S - Снежный покров - Высота снежного покрова, см. При наведении курсора мыши на число - состояние снежного покрова и степень покрытия местности в баллах.